ポンス-ヴィネッケ彗星

7P/Pons-Winnecke (2008)

English version
Home page
Updated on February 15, 2009

---------------------------------------------------------------------

・ プロフィール

・ 写真集

・ 軌道要素

The following orbital elements are taken from MPC 54170:

Epoch 2008 Sept. 11.0 TT = JDT 2454720.5
T 2008 Sept. 26.6342 TT                                 MPC
q   1.253265             (2000.0)            P               Q
n   0.1549729      Peri.  172.3293      -0.0640958      +0.9231974
a   3.432671       Node    93.4229      -0.9345704      +0.0776315
e   0.634901       Incl.   22.3102      -0.3499569      -0.3764040
P   6.36
From 165 observations 1964-2004, mean residual 0".9.  Nongravitational
     parameters A1 = +0.01, A2 = +0.0021.

・ 星図

・ 光度変化

        H = 15.8  G = 0.15                         [    ,-400]  (              〜2007年 8月23日)
        m1 = 11.7 + 5 logΔ +  12.5 log r(t - 50)  [-400,-126]  (2007年 8月23日〜2008年 5月23日)
        m1 = 55   + 5 logΔ - 150   log r          [-126,-115]  (2008年 5月23日〜2008年 6月 3日)
        m1 = 11.7 + 5 logΔ +  12.5 log r(t - 50)  [-115, -80]  (2008年 6月 3日〜2008年 7月 8日)
        m1 =  5.5 + 5 logΔ +  50   log r          [ -80,  54]  (2008年 7月 8日〜2008年11月19日)
        m1 = 11.5 + 5 logΔ +  15.0 log r(t - 50)  [  54, 380]  (2008年11月19日〜2009年10月11日)
        H = 15.8  G = 0.15                         [ 380,    ]  (2009年10月11日〜              )

---------------------------------------------------------------------

軌道要素はMPCのEphemerides and Orbital Elementsに掲載されたものです。
星図はステラナビゲータ Ver.8 (アストロアーツ) で作成したものです。
光度グラフはComet for Windowsで作成したものです。

---------------------------------------------------------------------

Copyright(C) Seiichi Yoshida (comet@aerith.net). All rights reserved.